| time (UTC) | temp F | wind direction | speed MPH | gust MPH | rain 1hr in | rain 24hr in | rain mn in | humidity % | barometer mb |
| 20260905215853 | 86 | 194 | 2.0 | 7.0 | 0.00 | 0.00 | 0.00 | 23 | 969.0 |
| 20260905214858 | 86 | 174 | 2.0 | 7.0 | 0.00 | 0.00 | 0.00 | 24 | 968.9 |
| 20260905213831 | 85 | 161 | 2.0 | 7.0 | 0.00 | 0.00 | 0.00 | 26 | 969.0 |
| 20260905212800 | 85 | 169 | 2.0 | 8.0 | 0.00 | 0.00 | 0.00 | 28 | 969.1 |
| 20260905211759 | 85 | 254 | 2.0 | 8.0 | 0.00 | 0.00 | 0.00 | 28 | 969.1 |
| 20260905210742 | 85 | 236 | 1.0 | 6.0 | 0.00 | 0.00 | 0.00 | 27 | 969.2 |
| 20260905205758 | 85 | 148 | 1.0 | 7.0 | 0.00 | 0.00 | 0.00 | 27 | 969.1 |
| 20260905204807 | 86 | 295 | 1.0 | 7.0 | 0.00 | 0.00 | 0.00 | 27 | 969.3 |
| 20260905203801 | 86 | 211 | 2.0 | 6.0 | 0.00 | 0.00 | 0.00 | 28 | 969.3 |
| 20260905202726 | 85 | 202 | 2.0 | 7.0 | 0.00 | 0.00 | 0.00 | 25 | 969.3 |
| 20260905201744 | 84 | 223 | 2.0 | 7.0 | 0.00 | 0.00 | 0.00 | 28 | 969.3 |
| 20260905200734 | 85 | 211 | 2.0 | 6.0 | 0.00 | 0.00 | 0.00 | 35 | 969.5 |
| 20260905195728 | 85 | 14 | 1.0 | 5.0 | 0.00 | 0.00 | 0.00 | 36 | 969.6 |
| 20260905194653 | 86 | 84 | 1.0 | 4.0 | 0.00 | 0.00 | 0.00 | 30 | 969.8 |
| 20260905193703 | 85 | 174 | 1.0 | 4.0 | 0.00 | 0.00 | 0.00 | 33 | 969.7 |
| 20260905192702 | 84 | 188 | 0.0 | 5.0 | 0.00 | 0.00 | 0.00 | 28 | 969.9 |
| 20260905191717 | 83 | 166 | 1.0 | 5.0 | 0.00 | 0.00 | 0.00 | 31 | 970.1 |
| 20260905190656 | 83 | 185 | 0.0 | 5.0 | 0.00 | 0.00 | 0.00 | 28 | 970.2 |
| 20260905185636 | 83 | 214 | 0.0 | 5.0 | 0.00 | 0.00 | 0.00 | 29 | 970.2 |
| 20260905184635 | 83 | 129 | 0.0 | 4.0 | 0.00 | 0.00 | 0.00 | 28 | 970.3 |
| 20260905183636 | 82 | 157 | 1.0 | 5.0 | 0.00 | 0.00 | 0.00 | 32 | 970.3 |
| 20260905182701 | 81 | 175 | 0.0 | 6.0 | 0.00 | 0.00 | 0.00 | 29 | 970.5 |
| 20260905181633 | 80 | 216 | 1.0 | 6.0 | 0.00 | 0.00 | 0.00 | 30 | 970.6 |
| 20260905180655 | 80 | 275 | 1.0 | 5.0 | 0.00 | 0.00 | 0.00 | 32 | 970.6 |
| 20260905175642 | 79 | 296 | 1.0 | 5.0 | 0.00 | 0.00 | 0.00 | 31 | 970.6 |
| 20260905174700 | 78 | 210 | 0.0 | 5.0 | 0.00 | 0.00 | 0.00 | 40 | 970.4 |
| 20260905173648 | 78 | 165 | 0.0 | 4.0 | 0.00 | 0.00 | 0.00 | 41 | 970.4 |
| 20260905172629 | 78 | 222 | 0.0 | 4.0 | 0.00 | 0.00 | 0.00 | 44 | 970.3 |
| 20260905171617 | 77 | 244 | 0.0 | 2.0 | 0.00 | 0.00 | 0.00 | 45 | 970.2 |
| 20260905170603 | 76 | 238 | 0.0 | 5.0 | 0.00 | 0.00 | 0.00 | 48 | 970.1 |
| 20260905165608 | 76 | 259 | 0.0 | 5.0 | 0.00 | 0.00 | 0.00 | 48 | 970.1 |
| 20260905164633 | 75 | 217 | 0.0 | 2.0 | 0.00 | 0.00 | 0.00 | 49 | 970.1 |
| 20260905163643 | 74 | 196 | 0.0 | 0.0 | 0.00 | 0.00 | 0.00 | 51 | 970.0 |
| 20260905162609 | 73 | 196 | 0.0 | 0.0 | 0.00 | 0.00 | 0.00 | 54 | 970.0 |
| 20260905161545 | 71 | 196 | 0.0 | 0.0 | 0.00 | 0.00 | 0.00 | 56 | 970.0 |
| 20260905160548 | 69 | 196 | 0.0 | 0.0 | 0.00 | 0.00 | 0.00 | 65 | 969.9 |
| 20260905155540 | 67 | 196 | 0.0 | 0.0 | 0.00 | 0.00 | 0.00 | 77 | 969.9 |
| 20260905154544 | 65 | 196 | 0.0 | 0.0 | 0.00 | 0.00 | 0.00 | 89 | 969.9 |
| 20260905153607 | 63 | 196 | 0.0 | 0.0 | 0.00 | 0.00 | 0.00 | 92 | 969.8 |
| 20260905152610 | 62 | 196 | 0.0 | 0.0 | 0.00 | 0.00 | 0.00 | 94 | 969.8 |
| 20260905151556 | 61 | 196 | 0.0 | 0.0 | 0.00 | 0.00 | 0.00 | 96 | 969.8 |
| 20260905150533 | 61 | 196 | 0.0 | 0.0 | 0.00 | 0.00 | 0.00 | 96 | 969.7 |
| 20260905145547 | 61 | 196 | 0.0 | 0.0 | 0.00 | 0.00 | 0.00 | 96 | 969.6 |
| 20260905144523 | 62 | 196 | 0.0 | 0.0 | 0.00 | 0.00 | 0.00 | 97 | 969.5 |
| 20260905143530 | 62 | 0 | 0.0 | 0.0 | 0.00 | 0.00 | 0.00 | 97 | 969.4 |
| 20260905141351 | 61 | 0 | 0.0 | 0.0 | 0.00 | 0.00 | 0.00 | 97 | 969.3 |
| 20260905135157 | 61 | 0 | 0.0 | 0.0 | 0.00 | 0.00 | 0.00 | 96 | 969.1 |
| 20260905134221 | 61 | 0 | 0.0 | 0.0 | 0.00 | 0.00 | 0.00 | 96 | 969.0 |
| 20260905133216 | 61 | 0 | 0.0 | 0.0 | 0.00 | 0.00 | 0.00 | 96 | 968.7 |
| 20260905132216 | 61 | 0 | 0.0 | 0.0 | 0.00 | 0.00 | 0.00 | 96 | 968.4 |
| 20260905131210 | 61 | 0 | 0.0 | 0.0 | 0.00 | 0.00 | 0.00 | 96 | 968.4 |
| 20260905130142 | 61 | 0 | 0.0 | 0.0 | 0.00 | 0.00 | 0.00 | 95 | 968.3 |
| 20260905125206 | 62 | 0 | 0.0 | 0.0 | 0.00 | 0.00 | 0.00 | 96 | 968.5 |
| 20260905124147 | 61 | 0 | 0.0 | 0.0 | 0.00 | 0.00 | 0.00 | 95 | 968.5 |
| 20260905123135 | 61 | 0 | 0.0 | 0.0 | 0.00 | 0.00 | 0.00 | 95 | 968.4 |
| 20260905122121 | 61 | 0 | 0.0 | 0.0 | 0.00 | 0.00 | 0.00 | 95 | 968.5 |
| 20260905120000 | 62 | 196 | 0.0 | 0.0 | 0.00 | 0.00 | 0.00 | 95 | 968.5 |
| 20260905113845 | 62 | 0 | 0.0 | 0.0 | 0.00 | 0.00 | 0.00 | 94 | 968.6 |
| 20260905111709 | 62 | 0 | 0.0 | 0.0 | 0.00 | 0.00 | 0.00 | 94 | 968.6 |
| 20260905110644 | 62 | 0 | 0.0 | 0.0 | 0.00 | 0.00 | 0.00 | 93 | 968.6 |
| 20260905104508 | 62 | 196 | 0.0 | 0.0 | 0.00 | 0.00 | 0.00 | 93 | 968.7 |
| 20260905103450 | 62 | 0 | 0.0 | 0.0 | 0.00 | 0.00 | 0.00 | 92 | 968.7 |
| 20260905102458 | 63 | 0 | 0.0 | 0.0 | 0.00 | 0.00 | 0.00 | 91 | 968.8 |
| 20260905101437 | 63 | 0 | 0.0 | 0.0 | 0.00 | 0.00 | 0.00 | 91 | 968.8 |
| 20260905100406 | 63 | 0 | 0.0 | 0.0 | 0.00 | 0.00 | 0.00 | 90 | 968.8 |
| 20260905095339 | 63 | 0 | 0.0 | 0.0 | 0.00 | 0.00 | 0.00 | 90 | 968.9 |
| 20260905094404 | 63 | 0 | 0.0 | 0.0 | 0.00 | 0.00 | 0.00 | 88 | 968.8 |
| 20260905093424 | 63 | 0 | 0.0 | 0.0 | 0.00 | 0.00 | 0.00 | 87 | 968.8 |
| 20260905091315 | 63 | 196 | 0.0 | 0.0 | 0.00 | 0.00 | 0.00 | 85 | 968.9 |
| 20260905090309 | 63 | 196 | 0.0 | 0.0 | 0.00 | 0.00 | 0.00 | 84 | 969.0 |
| 20260905085237 | 63 | 196 | 0.0 | 0.0 | 0.00 | 0.00 | 0.00 | 83 | 969.0 |
| 20260905084233 | 63 | 196 | 0.0 | 0.0 | 0.00 | 0.00 | 0.00 | 82 | 969.1 |
| 20260905083237 | 64 | 196 | 0.0 | 0.0 | 0.00 | 0.00 | 0.00 | 82 | 969.0 |
| 20260905082233 | 64 | 196 | 0.0 | 0.0 | 0.00 | 0.00 | 0.00 | 81 | 969.1 |
| 20260905081213 | 64 | 196 | 0.0 | 0.0 | 0.00 | 0.00 | 0.00 | 82 | 969.2 |
| 20260905080157 | 65 | 196 | 0.0 | 0.0 | 0.00 | 0.00 | 0.00 | 81 | 969.2 |
| 20260905074012 | 65 | 196 | 0.0 | 0.0 | 0.00 | 0.00 | 0.00 | 81 | 969.0 |
| 20260905072951 | 65 | 196 | 0.0 | 0.0 | 0.00 | 0.00 | 0.00 | 80 | 969.2 |
| 20260905071957 | 65 | 196 | 0.0 | 0.0 | 0.00 | 0.00 | 0.00 | 79 | 969.2 |
| 20260905065850 | 65 | 196 | 0.0 | 0.0 | 0.00 | 0.00 | 0.00 | 79 | 969.2 |
| 20260905064834 | 65 | 196 | 0.0 | 0.0 | 0.00 | 0.00 | 0.00 | 79 | 969.0 |
| 20260905063813 | 65 | 196 | 0.0 | 0.0 | 0.00 | 0.00 | 0.00 | 78 | 969.1 |
| 20260905062801 | 65 | 196 | 0.0 | 0.0 | 0.00 | 0.00 | 0.00 | 79 | 969.0 |
| 20260905061734 | 65 | 196 | 0.0 | 0.0 | 0.00 | 0.00 | 0.00 | 79 | 969.0 |
| 20260905060734 | 65 | 196 | 0.0 | 0.0 | 0.00 | 0.00 | 0.00 | 79 | 969.1 |
| 20260905055725 | 65 | 196 | 0.0 | 0.0 | 0.00 | 0.00 | 0.00 | 77 | 969.1 |
| 20260905054658 | 66 | 196 | 0.0 | 0.0 | 0.00 | 0.00 | 0.00 | 76 | 969.0 |
| 20260905052607 | 67 | 196 | 0.0 | 0.0 | 0.00 | 0.00 | 0.00 | 72 | 969.0 |
| 20260905051622 | 68 | 196 | 0.0 | 0.0 | 0.00 | 0.00 | 0.00 | 70 | 969.0 |
| 20260905050603 | 68 | 196 | 0.0 | 0.0 | 0.00 | 0.00 | 0.00 | 70 | 969.0 |
| 20260905045552 | 68 | 196 | 0.0 | 1.0 | 0.00 | 0.00 | 0.00 | 70 | 968.9 |
| 20260905043445 | 68 | 196 | 0.0 | 0.0 | 0.00 | 0.00 | 0.00 | 69 | 968.7 |
| 20260905042500 | 68 | 196 | 0.0 | 0.0 | 0.00 | 0.00 | 0.00 | 68 | 968.7 |
| 20260905041507 | 68 | 196 | 0.0 | 0.0 | 0.00 | 0.00 | 0.00 | 67 | 968.6 |
| 20260905035356 | 69 | 196 | 0.0 | 0.0 | 0.00 | 0.00 | 0.00 | 59 | 968.5 |
| 20260905034352 | 69 | 196 | 0.0 | 0.0 | 0.00 | 0.00 | 0.00 | 55 | 968.4 |
| 20260905033351 | 69 | 196 | 0.0 | 0.0 | 0.00 | 0.00 | 0.00 | 52 | 968.2 |
| 20260905032402 | 68 | 196 | 0.0 | 0.0 | 0.00 | 0.00 | 0.00 | 48 | 968.1 |
| 20260905031351 | 68 | 196 | 0.0 | 2.0 | 0.00 | 0.00 | 0.00 | 54 | 968.1 |
| 20260905030346 | 67 | 196 | 0.0 | 0.0 | 0.00 | 0.00 | 0.00 | 63 | 968.0 |
| 20260905025334 | 67 | 196 | 0.0 | 0.0 | 0.00 | 0.00 | 0.00 | 73 | 967.9 |
| 20260905024354 | 67 | 196 | 0.0 | 0.0 | 0.00 | 0.00 | 0.00 | 72 | 967.9 |
| 20260905023321 | 67 | 0 | 0.0 | 0.0 | 0.00 | 0.00 | 0.00 | 71 | 967.9 |
| 20260905021156 | 68 | 196 | 0.0 | 2.0 | 0.00 | 0.00 | 0.00 | 75 | 967.9 |
| 20260905020210 | 69 | 0 | 0.0 | 0.0 | 0.00 | 0.00 | 0.00 | 72 | 968.0 |
| 20260905015208 | 70 | 0 | 1.0 | 3.0 | 0.00 | 0.00 | 0.00 | 70 | 968.1 |
| 20260905014151 | 71 | 0 | 0.0 | 3.0 | 0.00 | 0.00 | 0.00 | 69 | 968.1 |
| 20260905013132 | 71 | 196 | 1.0 | 4.0 | 0.00 | 0.00 | 0.00 | 68 | 968.1 |
| 20260905012109 | 72 | 218 | 1.0 | 6.0 | 0.00 | 0.00 | 0.00 | 65 | 968.2 |
| 20260905011133 | 73 | 150 | 0.0 | 6.0 | 0.00 | 0.00 | 0.00 | 62 | 968.3 |
| 20260905010113 | 74 | 175 | 1.0 | 5.0 | 0.00 | 0.00 | 0.00 | 58 | 968.4 |
| 20260905005116 | 75 | 141 | 1.0 | 5.0 | 0.00 | 0.00 | 0.00 | 53 | 968.3 |
| 20260905004104 | 75 | 208 | 1.0 | 8.0 | 0.00 | 0.00 | 0.00 | 49 | 968.3 |
| 20260905003030 | 76 | 222 | 1.0 | 8.0 | 0.00 | 0.00 | 0.00 | 46 | 968.3 |
| 20260905000859 | 76 | 220 | 1.0 | 6.0 | 0.00 | 0.00 | 0.00 | 46 | 968.2 |
| 20260904235859 | 77 | 185 | 1.0 | 6.0 | 0.00 | 0.00 | 0.00 | 48 | 968.1 |
| 20260904234843 | 77 | 232 | 1.0 | 8.0 | 0.00 | 0.00 | 0.00 | 45 | 968.1 |
| 20260904232650 | 77 | 236 | 1.0 | 8.0 | 0.00 | 0.00 | 0.00 | 45 | 968.3 |
| 20260904231640 | 77 | 230 | 1.0 | 8.0 | 0.00 | 0.00 | 0.00 | 48 | 968.1 |
| 20260904230638 | 77 | 198 | 2.0 | 7.0 | 0.00 | 0.00 | 0.00 | 50 | 968.3 |
| 20260904225639 | 77 | 234 | 2.0 | 7.0 | 0.00 | 0.00 | 0.00 | 50 | 968.4 |
| 20260904223548 | 77 | 205 | 2.0 | 8.0 | 0.00 | 0.00 | 0.00 | 52 | 968.4 |
| 20260904222546 | 77 | 215 | 2.0 | 9.0 | 0.00 | 0.00 | 0.00 | 53 | 968.5 |
| 20260904221554 | 77 | 239 | 2.0 | 9.0 | 0.00 | 0.00 | 0.00 | 49 | 968.4 |